Flight Track Log - Related Links

Times and Time Zones

All times are in EDT time to prevent confusion due to time zone crossing. See the N27XP flight status page for this flight to view local times or setup timezone preferences in your user account.

Time Position Orientation Groundspeed Altitude Reporting Facility
EDT Latitude Longitude Course Direction KTS MPH feet Rate Location/Type
Mon 12:11:28 PM 34.0000 -84.6333 195° South 192 221 2,500  Level Atlanta TRACON
Mon 12:12:28 PM 33.9500 -84.6500 195° South 181 208 5,500 1,800 Climbing Atlanta TRACON
Mon 12:13:28 PM 33.9333 -84.6000 112° Southeast 230 265 6,100 1,500 Climbing Atlanta TRACON
Mon 12:14:28 PM 33.9333 -84.5167 90° East 252 290 8,500 2,507 Climbing Atlanta TRACON
Mon 12:15:42 PM 33.8939 -84.4217 117° Southeast 259 298 11,700 1,925 Climbing Atlanta Center
Mon 12:16:42 PM 33.8647 -84.3364 112° Southeast 273 314 12,800 1,200 Climbing Atlanta Center
Mon 12:17:42 PM 33.8650 -84.2414 90° East 292 336 14,100 1,600 Climbing Atlanta Center
Mon 12:18:42 PM 33.8881 -84.1289 76° East 310 357 16,000 1,800 Climbing Atlanta Center
Mon 12:19:42 PM 33.9236 -84.0189 69° East 332 382 17,700 1,350 Climbing Atlanta Center
Mon 12:20:42 PM 33.9653 -83.9061 66° East 355 409 18,700 1,200 Climbing Atlanta Center
Mon 12:21:42 PM 34.0028 -83.7858 69° East 376 433 20,100 1,400 Climbing Atlanta Center
Mon 12:22:42 PM 34.0233 -83.6603 79° East 371 427 21,500 1,350 Climbing Atlanta Center
Mon 12:23:42 PM 34.0436 -83.5325 79° East 379 436 22,800 1,250 Climbing Atlanta Center
Mon 12:24:42 PM 34.0639 -83.3894 80° East 384 442 24,000 1,050 Climbing Atlanta Center
Mon 12:25:42 PM 34.0881 -83.2586 77° East 395 455 24,900 500 Climbing Atlanta Center
Mon 12:26:42 PM 34.1289 -83.1328 69° East 395 455 25,000 50 Climbing Atlanta Center
Mon 12:27:42 PM 34.1656 -82.9969 72° East 407 468 25,000  Level Atlanta Center
Mon 12:28:42 PM 34.2081 -82.8658 69° East 414 476 25,000  Level Atlanta Center
Mon 12:29:00 PM 34.1888 -82.8614 69° East  Level FlightAware Approximate
Mon 12:29:42 PM 34.2528 -82.7294 68° East 435 501 25,000  Level Atlanta Center
Mon 12:30:42 PM 34.2869 -82.6158 70° East 435 501 25,000  Level Atlanta Center
Mon 12:31:42 PM 34.3269 -82.4667 72° East 430 495 25,000  Level Atlanta Center
Mon 12:32:42 PM 34.3542 -82.3253 77° East 430 495 25,000  Level Atlanta Center
Mon 12:33:42 PM 34.3833 -82.1786 76° East 430 495 25,000  Level Atlanta Center
Mon 12:34:42 PM 34.4208 -82.0369 72° East 435 501 25,000 -50 Level Atlanta Center
Mon 12:35:42 PM 34.4686 -81.8997 67° East 435 501 24,900 -450 Descending Atlanta Center
Mon 12:36:42 PM 34.5225 -81.7622 65° Northeast 440 506 24,100 -450 Descending Atlanta Center
Mon 12:37:42 PM 34.5656 -81.6247 69° East 440 506 24,000 -50 Descending Atlanta Center
Mon 12:38:42 PM 34.6108 -81.4822 69° East 440 506 24,000  Level Atlanta Center
Mon 12:39:42 PM 34.6578 -81.3317 69° East 435 501 24,000  Level Atlanta Center
Mon 12:40:42 PM 34.6983 -81.1914 71° East 435 501 24,000 -100 Level Atlanta Center
Mon 12:41:42 PM 34.7450 -81.0533 68° East 440 506 23,800 -500 Descending Atlanta Center
Mon 12:42:42 PM 34.7922 -80.9353 64° Northeast 427 491 23,000 -400 Descending Atlanta Center
Mon 12:43:42 PM 34.8642 -80.8086 55° Northeast 437 503 23,000 -450 Level Atlanta Center
Mon 12:44:42 PM 34.9339 -80.6869 55° Northeast 444 511 22,100 -1,000 Descending Atlanta Center
Mon 12:45:42 PM 34.9864 -80.5503 65° Northeast 439 505 21,000 -1,800 Descending Atlanta Center
Mon 12:46:42 PM 35.0328 -80.4192 67° East 428 493 18,500 -2,350 Descending Atlanta Center
Mon 12:47:42 PM 35.0683 -80.2831 72° East 419 482 16,300 -1,750 Descending Atlanta Center
Mon 12:48:42 PM 35.1081 -80.1542 69° East 406 467 15,000 -738 Descending Atlanta Center
Mon 12:49:52 PM 35.1594 -79.9994 68° East 384 442 14,700 -1,355 Descending Atlanta Center
Mon 12:51:17 PM 35.2000 -79.8444 72° East 373 429 11,500 -2,727 Descending Washington Center
Mon 12:52:15 PM 35.2292 -79.7239 73° East 352 405 8,200 -3,203 Descending Washington Center
Mon 12:53:15 PM 35.2531 -79.6386 71° East 305 351 5,200 -2,479 Descending Washington Center
Mon 12:54:16 PM 35.2725 -79.5583 73° East 271 312 3,200 -1,967 Descending Washington Center

Login

Don't have an account? Register now (free) for customized features, flight alerts, and more!